Location: Dąbrówka
(52.2799°N, 15.8070°E)
Time: 07:24:24
(UTC+01:00)

ISS - Pass Details

Date: 29 January 2019
Orbit: 403 x 411 km, 51.6° (Epoch: 18 February)

Event Time Altitude Azimuth Distance (km) Brightness Sun altitude
Rises 19:52:51 0° 274° (W) 2,340 1.2 -29.7°
Reaches altitude 10° 19:54:56 10° 273° (W) 1,479 -0.1 -30.0°
Enters shadow 19:55:29 14° 272° (W) 1,255 -0.5 -30.1°
